Regional Weather Roundup
Issued by NWS Charleston, WV

Home | Current Version | Previous Version | Text Only | Print | Product List | Glossary On
Versions: 1 2 3 4 5 6 7 8 9 10 11 12 13 14 15 16 17 18 19 20 21 22 23 24 25 26 27
000
ASUS41 KRLX 152010
RWRRLX
West Virginia Regional Weather Roundup
National Weather Service Charleston WV
300 PM EST FRI DEC 15 2017

Note: "fair" indicates few or no clouds below 12,000 feet with no
significant weather and/or obstructions to visibility.

WVZ003-152100-
Northern Panhandle of West Virginia

CITY           SKY/WX    TMP DP  RH WIND       PRES   REMARKS
WHEELING       CLOUDY    27  13  55 W9G23     29.89S
$$

WVZ009-152100-
Northwest West Virginia

CITY           SKY/WX    TMP DP  RH WIND       PRES   REMARKS
PARKERSBURG    PTSUNNY   32  12  43 SW12G21   29.98S
$$

WVZ006-152100-
Western West Virginia

CITY           SKY/WX    TMP DP  RH WIND       PRES   REMARKS
HUNTINGTON     CLOUDY    33  16  49 SW10G17   30.02S
$$

WVZ015-152100-
West Central West Virginia

CITY           SKY/WX    TMP DP  RH WIND       PRES   REMARKS
CHARLESTON     CLOUDY    32  16  51 W16G22    30.00R
$$

WVZ022-031-152100-
North Central West Virginia

CITY           SKY/WX    TMP DP  RH WIND       PRES   REMARKS
CLARKSBURG     MOSUNNY   30  17  58 SW13G22   29.92S
MORGANTOWN     CLOUDY    28  16  60 SW10      29.91R
$$

WVZ025-035-042-045-152100-
Southern West Virginia

CITY           SKY/WX    TMP DP  RH WIND       PRES   REMARKS
BECKLEY        CLOUDY    26  18  71 W14G20    29.91R
LOGAN          CLOUDY    28  18  64 W12G18    29.98R
BLUEFIELD      CLOUDY    26  17  68 W12G20    29.89R
LEWISBURG      CLOUDY    29  19  68 W9        29.90R
$$

WVZ047-152100-
Northern Mountains of West Virginia

CITY           SKY/WX    TMP DP  RH WIND       PRES   REMARKS
ELKINS         CLOUDY    27  17  66 W9        29.89R
$$

WVZ052-152100-
Eastern Panhandle of West Virginia

CITY           SKY/WX    TMP DP  RH WIND       PRES   REMARKS
MARTINSBURG    CLOUDY    28  19  69 CALM      29.91S
PETERSBURG     CLOUDY    29  21  71 CALM      29.89S
$$




USA.gov is the U.S. government's official web portal to all federal, state and local government web resources and services.